Back to catalog

GCOM-C

AliveScienceSSO
NORAD 43065·PAYLOAD·🇯🇵 Japan

Launched Dec 23, 2017 from Tanegashima Space Center

Loading…

Next Passes (next 24 hours)

TLE

FreshSource: Space-Track

Epoch: Sep 14, 2026, 02:36 UTC

1 43065U 17082A   26257.10894701  .00000087  00000-0  53606-4 0  9997
2 43065  98.6207 329.5479 0001215  92.9657 267.1663 14.27290771454620

Track GCOM-C in real time with AllMySat

Download on the App Store